SWA766 KBNA-KRDU

Flight info

Callsign SWA766
Flight time N/A
Altitude 37000
Route TAZMO4 BURME MXEEN KPASS ALDAN4
Aircraft B738/M-SADE2E3GIJ4RWZ/LB1D1

Departure

Time 2026-05-07 01:10
Airport Nashville International Airport (KBNA)

Arrival

Time N/A
Airport Raleigh-Durham International Airport (KRDU)
Time Latitude Longitude Altitude Speed Heading
2026-05-07 00:47 36.12764 -86.66973 567 ft 0 kts 41°
2026-05-07 00:58 36.12750 -86.66989 585 ft 4 kts 43°
2026-05-07 00:58 36.12737 -86.67012 573 ft 4 kts 95°
2026-05-07 00:58 36.12747 -86.67039 572 ft 3 kts 130°
2026-05-07 00:59 36.12752 -86.67047 570 ft 1 kts 130°
2026-05-07 01:03 36.12752 -86.67046 571 ft 0 kts 130°
2026-05-07 01:03 36.12743 -86.67033 573 ft 4 kts 130°
2026-05-07 01:03 36.12713 -86.66991 569 ft 9 kts 131°
2026-05-07 01:03 36.12667 -86.66926 571 ft 11 kts 132°
2026-05-07 01:04 36.12608 -86.66879 572 ft 10 kts 173°
2026-05-07 01:04 36.12544 -86.66910 572 ft 10 kts 210°
2026-05-07 01:04 36.12484 -86.66949 578 ft 10 kts 196°
2026-05-07 01:04 36.12425 -86.66920 581 ft 10 kts 136°
2026-05-07 01:05 36.12376 -86.66861 576 ft 10 kts 133°
2026-05-07 01:05 36.12343 -86.66789 580 ft 9 kts 112°
2026-05-07 01:05 36.12326 -86.66716 578 ft 10 kts 105°
2026-05-07 01:05 36.12302 -86.66607 575 ft 15 kts 105°
2026-05-07 01:06 36.12232 -86.66524 572 ft 15 kts 181°
2026-05-07 01:06 36.12137 -86.66561 579 ft 14 kts 199°
2026-05-07 01:06 36.12046 -86.66601 579 ft 13 kts 199°
2026-05-07 01:06 36.11958 -86.66634 581 ft 13 kts 198°
2026-05-07 01:07 36.11874 -86.66668 583 ft 13 kts 198°
2026-05-07 01:07 36.11792 -86.66702 586 ft 12 kts 198°
2026-05-07 01:07 36.11712 -86.66734 589 ft 13 kts 197°
2026-05-07 01:07 36.11618 -86.66769 590 ft 16 kts 196°
2026-05-07 01:08 36.11502 -86.66814 593 ft 19 kts 199°
2026-05-07 01:08 36.11375 -86.66868 595 ft 13 kts 199°
2026-05-07 01:08 36.11297 -86.66821 594 ft 16 kts 121°
2026-05-07 01:08 36.11337 -86.66717 594 ft 16 kts 13°
2026-05-07 01:09 36.11444 -86.66693 593 ft 15 kts 15°
2026-05-07 01:09 36.11546 -86.66658 593 ft 19 kts 17°
2026-05-07 01:09 36.11911 -86.66512 581 ft 96 kts 18°
2026-05-07 01:09 36.12793 -86.66167 571 ft 163 kts 17°
2026-05-07 01:10 36.13913 -86.65457 1027 ft 186 kts 28°
2026-05-07 01:10 36.15069 -86.65113 2281 ft 168 kts 355°
2026-05-07 01:10 36.16237 -86.64943 3015 ft 185 kts 29°
2026-05-07 01:10 36.17124 -86.63640 3296 ft 214 kts 60°
2026-05-07 01:11 36.17956 -86.61996 3611 ft 235 kts 53°
2026-05-07 01:11 36.18989 -86.60363 4159 ft 246 kts 48°
2026-05-07 01:11 36.20101 -86.58632 4573 ft 270 kts 60°
2026-05-07 01:11 36.20824 -86.56420 5227 ft 285 kts 71°
2026-05-07 01:12 36.21352 -86.53999 5910 ft 297 kts 72°
2026-05-07 01:12 36.22021 -86.51531 6578 ft 310 kts 77°
2026-05-07 01:12 36.21927 -86.48873 6940 ft 313 kts 110°
2026-05-07 01:12 36.21048 -86.46472 7003 ft 312 kts 119°
2026-05-07 01:13 36.20157 -86.44006 7009 ft 315 kts 114°
2026-05-07 01:13 36.19306 -86.41484 7489 ft 318 kts 117°
2026-05-07 01:13 36.18395 -86.39007 8498 ft 316 kts 119°
2026-05-07 01:13 36.17480 -86.36532 9427 ft 317 kts 119°
2026-05-07 01:14 36.16565 -86.34033 10186 ft 324 kts 119°
2026-05-07 01:14 36.15623 -86.31438 10638 ft 341 kts 119°
2026-05-07 01:14 36.14625 -86.28668 10934 ft 361 kts 119°
2026-05-07 01:14 36.13602 -86.25798 11573 ft 368 kts 119°
2026-05-07 01:15 36.12566 -86.22870 12266 ft 374 kts 119°
2026-05-07 01:15 36.11519 -86.19910 13072 ft 378 kts 120°
2026-05-07 01:15 36.10470 -86.16946 13819 ft 384 kts 120°
2026-05-07 01:15 36.09387 -86.13896 14490 ft 391 kts 120°
2026-05-07 01:16 36.08280 -86.10789 15165 ft 399 kts 120°
2026-05-07 01:16 36.07203 -86.07583 15821 ft 412 kts 113°
2026-05-07 01:16 36.06725 -86.04024 16477 ft 426 kts 98°
2026-05-07 01:16 36.06505 -86.00334 17123 ft 435 kts 97°
2026-05-07 01:17 36.06302 -85.96570 17723 ft 444 kts 97°
2026-05-07 01:17 36.06078 -85.92735 18350 ft 451 kts 97°
2026-05-07 01:17 36.05825 -85.88839 18929 ft 457 kts 98°
2026-05-07 01:17 36.05553 -85.84909 19616 ft 460 kts 98°
2026-05-07 01:18 36.05275 -85.81024 20284 ft 462 kts 98°
2026-05-07 01:18 36.04991 -85.77050 20926 ft 466 kts 98°
2026-05-07 01:18 36.04709 -85.73037 21565 ft 470 kts 98°
2026-05-07 01:18 36.04428 -85.69003 22209 ft 473 kts 98°
2026-05-07 01:19 36.04145 -85.64938 22834 ft 476 kts 98°
2026-05-07 01:19 36.03859 -85.60847 23453 ft 480 kts 98°
2026-05-07 01:19 36.03570 -85.56727 23958 ft 484 kts 98°
2026-05-07 01:19 36.03276 -85.52561 24417 ft 488 kts 98°
2026-05-07 01:20 36.02977 -85.48366 24852 ft 493 kts 98°
2026-05-07 01:20 36.02673 -85.44118 25280 ft 498 kts 98°
2026-05-07 01:20 36.02370 -85.39898 25719 ft 502 kts 98°
2026-05-07 01:20 36.02058 -85.35581 26152 ft 507 kts 98°
2026-05-07 01:21 36.01742 -85.31228 26582 ft 511 kts 99°
2026-05-07 01:21 36.01422 -85.26844 27024 ft 515 kts 99°
2026-05-07 01:21 36.01098 -85.22418 27436 ft 519 kts 99°
2026-05-07 01:21 36.00770 -85.17961 27841 ft 523 kts 99°
2026-05-07 01:22 36.00439 -85.13473 28240 ft 527 kts 99°
2026-05-07 01:22 36.00102 -85.08943 28631 ft 531 kts 99°
2026-05-07 01:22 36.00044 -85.04365 28967 ft 541 kts 84°
2026-05-07 01:22 36.00878 -84.99819 29353 ft 544 kts 72°
2026-05-07 01:23 36.02044 -84.95361 29763 ft 547 kts 70°
2026-05-07 01:23 36.03275 -84.90896 30080 ft 551 kts 69°
2026-05-07 01:23 36.04522 -84.86408 30338 ft 556 kts 70°
2026-05-07 01:23 36.05763 -84.81870 30644 ft 559 kts 70°
2026-05-07 01:24 36.06984 -84.77297 30963 ft 562 kts 71°
2026-05-07 01:24 36.08176 -84.72748 31265 ft 564 kts 71°
2026-05-07 01:24 36.09371 -84.68118 31566 ft 567 kts 71°
2026-05-07 01:24 36.10563 -84.63468 31949 ft 567 kts 71°
2026-05-07 01:25 36.11749 -84.58825 32403 ft 565 kts 72°
2026-05-07 01:25 36.12932 -84.54194 32853 ft 564 kts 72°
2026-05-07 01:25 36.14115 -84.49562 33223 ft 565 kts 72°
2026-05-07 01:25 36.15300 -84.44921 33570 ft 566 kts 72°
2026-05-07 01:26 36.16482 -84.40287 33979 ft 565 kts 72°
2026-05-07 01:26 36.17664 -84.35650 34364 ft 564 kts 72°
2026-05-07 01:26 36.18842 -84.31023 34691 ft 565 kts 72°
2026-05-07 01:26 36.20021 -84.26379 34981 ft 566 kts 71°
2026-05-07 01:27 36.21183 -84.21796 35258 ft 566 kts 71°
2026-05-07 01:27 36.22361 -84.17139 35523 ft 567 kts 71°
2026-05-07 01:27 36.23539 -84.12475 35774 ft 568 kts 71°
2026-05-07 01:27 36.24715 -84.07805 36096 ft 568 kts 71°
2026-05-07 01:28 36.25890 -84.03132 36381 ft 567 kts 71°
2026-05-07 01:28 36.27060 -83.98471 36714 ft 566 kts 71°
2026-05-07 01:28 36.28228 -83.93812 36992 ft 567 kts 71°
2026-05-07 01:29 36.30577 -83.84416 36992 ft 573 kts 70°
2026-05-07 01:29 36.32904 -83.75068 36968 ft 567 kts 71°
2026-05-07 01:30 36.35210 -83.65764 36980 ft 564 kts 71°
2026-05-07 01:30 36.37508 -83.56466 36978 ft 564 kts 70°
2026-05-07 01:31 36.39800 -83.47157 36995 ft 564 kts 70°
2026-05-07 01:31 36.42085 -83.37841 36985 ft 564 kts 71°
2026-05-07 01:32 36.44364 -83.28513 36976 ft 565 kts 70°
2026-05-07 01:32 36.46619 -83.19223 36964 ft 566 kts 72°
2026-05-07 01:33 36.48196 -83.09624 36960 ft 568 kts 80°
2026-05-07 01:33 36.49454 -82.99915 36960 ft 569 kts 81°
2026-05-07 01:34 36.50721 -82.90202 36961 ft 570 kts 80°
2026-05-07 01:34 36.52030 -82.80549 36948 ft 571 kts 79°
2026-05-07 01:35 36.53362 -82.70818 36977 ft 570 kts 79°
2026-05-07 01:35 36.54682 -82.61102 36993 ft 570 kts 79°
2026-05-07 01:36 36.55989 -82.51380 37008 ft 570 kts 79°
2026-05-07 01:36 36.57287 -82.41651 37015 ft 570 kts 79°
2026-05-07 01:37 36.58575 -82.31937 37007 ft 569 kts 79°
2026-05-07 01:37 36.59854 -82.22229 36976 ft 568 kts 79°
2026-05-07 01:38 36.61115 -82.12594 36999 ft 567 kts 79°
2026-05-07 01:38 36.62376 -82.02901 36995 ft 567 kts 79°
2026-05-07 01:39 36.63626 -81.93227 36997 ft 566 kts 79°
2026-05-07 01:39 36.64873 -81.83551 36987 ft 566 kts 78°
2026-05-07 01:40 36.66753 -81.74086 36983 ft 562 kts 69°
2026-05-07 01:40 36.69075 -81.64849 36955 ft 563 kts 68°
2026-05-07 01:41 36.71381 -81.55524 36987 ft 564 kts 69°
2026-05-07 01:41 36.73581 -81.46143 37001 ft 565 kts 70°
2026-05-07 01:42 36.75738 -81.36719 37020 ft 565 kts 70°
2026-05-07 01:42 36.77891 -81.27292 37026 ft 566 kts 70°
2026-05-07 01:42 36.78973 -81.22560 36805 ft 569 kts 70°
2026-05-07 01:43 36.80060 -81.17805 36259 ft 570 kts 70°
2026-05-07 01:43 36.81143 -81.13057 35695 ft 568 kts 70°
2026-05-07 01:43 36.82208 -81.08379 35102 ft 569 kts 70°
2026-05-07 01:43 36.83291 -81.03617 34342 ft 573 kts 71°
2026-05-07 01:44 36.84380 -80.98817 33622 ft 575 kts 71°
2026-05-07 01:44 36.85465 -80.94023 32886 ft 576 kts 71°
2026-05-07 01:44 36.86552 -80.89203 32173 ft 575 kts 72°
2026-05-07 01:44 36.87634 -80.84397 31430 ft 575 kts 72°
2026-05-07 01:45 36.88710 -80.79608 30772 ft 572 kts 73°
2026-05-07 01:45 36.89781 -80.74829 30186 ft 568 kts 73°
2026-05-07 01:45 36.90837 -80.70110 29530 ft 562 kts 73°
2026-05-07 01:45 36.91869 -80.65487 28934 ft 555 kts 73°
2026-05-07 01:46 36.92909 -80.60816 28324 ft 548 kts 73°
2026-05-07 01:46 36.93911 -80.56314 27785 ft 541 kts 73°
2026-05-07 01:46 36.94913 -80.51807 27229 ft 534 kts 73°
2026-05-07 01:46 36.95897 -80.47357 26727 ft 527 kts 73°
2026-05-07 01:47 36.96841 -80.42971 26359 ft 518 kts 74°
2026-05-07 01:47 36.97754 -80.38658 25977 ft 509 kts 74°
2026-05-07 01:47 36.98647 -80.34416 25612 ft 500 kts 74°
2026-05-07 01:47 36.99524 -80.30244 25238 ft 492 kts 74°
2026-05-07 01:48 37.00391 -80.26129 24988 ft 486 kts 73°
2026-05-07 01:48 37.01246 -80.22080 24957 ft 475 kts 73°
2026-05-07 01:48 37.02076 -80.18143 24935 ft 461 kts 73°
2026-05-07 01:48 37.02879 -80.14328 24924 ft 446 kts 73°
2026-05-07 01:49 37.03395 -80.11872 24919 ft 436 kts 73°
2026-05-07 01:49 37.04140 -80.08260 24899 ft 423 kts 77°
2026-05-07 01:49 37.04311 -80.04647 24921 ft 411 kts 98°
2026-05-07 01:49 37.03315 -80.00090 24803 ft 414 kts 118°
2026-05-07 01:50 37.02157 -79.96759 24182 ft 422 kts 120°
2026-05-07 01:50 37.00896 -79.93355 23193 ft 439 kts 120°
2026-05-07 01:50 36.99576 -79.89837 22113 ft 453 kts 120°
2026-05-07 01:50 36.98249 -79.86255 21455 ft 454 kts 119°
2026-05-07 01:51 36.97381 -79.83880 21154 ft 451 kts 119°
2026-05-07 01:51 36.96098 -79.80333 20737 ft 445 kts 119°
2026-05-07 01:51 36.94837 -79.76820 20291 ft 441 kts 119°
2026-05-07 01:51 36.93587 -79.73330 19871 ft 437 kts 119°
2026-05-07 01:52 36.92350 -79.69878 19523 ft 433 kts 119°
2026-05-07 01:52 36.91124 -79.66463 19191 ft 430 kts 119°
2026-05-07 01:52 36.89903 -79.63069 18889 ft 426 kts 119°
2026-05-07 01:52 36.88695 -79.59715 18597 ft 422 kts 119°
2026-05-07 01:53 36.87485 -79.56364 18305 ft 424 kts 119°
2026-05-07 01:53 36.86283 -79.53042 17961 ft 426 kts 119°
2026-05-07 01:53 36.85070 -79.49689 17621 ft 422 kts 119°
2026-05-07 01:53 36.83870 -79.46367 17291 ft 417 kts 119°
2026-05-07 01:54 36.82681 -79.43082 16975 ft 413 kts 119°
2026-05-07 01:54 36.81506 -79.39839 16665 ft 408 kts 119°
2026-05-07 01:54 36.80342 -79.36632 16397 ft 403 kts 119°
2026-05-07 01:54 36.79190 -79.33463 16125 ft 399 kts 119°
2026-05-07 01:55 36.78047 -79.30319 15825 ft 397 kts 119°
2026-05-07 01:55 36.76908 -79.27195 15529 ft 394 kts 119°
2026-05-07 01:55 36.75776 -79.24091 15228 ft 392 kts 119°
2026-05-07 01:55 36.74667 -79.21051 14944 ft 389 kts 119°
2026-05-07 01:56 36.73547 -79.17985 14656 ft 387 kts 118°
2026-05-07 01:56 36.72433 -79.14938 14364 ft 385 kts 119°
2026-05-07 01:56 36.71327 -79.11914 14074 ft 382 kts 119°
2026-05-07 01:56 36.70230 -79.08918 13791 ft 378 kts 119°
2026-05-07 01:57 36.69142 -79.05952 13473 ft 375 kts 119°
2026-05-07 01:57 36.67803 -79.03233 13143 ft 363 kts 138°
2026-05-07 01:57 36.65879 -79.01321 12892 ft 347 kts 156°
2026-05-07 01:57 36.63722 -79.00252 12643 ft 334 kts 172°
2026-05-07 01:58 36.61472 -78.99575 12402 ft 334 kts 174°
2026-05-07 01:58 36.59196 -78.98954 12144 ft 337 kts 174°
2026-05-07 01:58 36.56909 -78.98330 11903 ft 335 kts 173°
2026-05-07 01:58 36.54640 -78.97695 11660 ft 333 kts 173°
2026-05-07 01:59 36.52389 -78.97055 11409 ft 332 kts 173°
2026-05-07 01:59 36.50150 -78.96410 11153 ft 327 kts 173°
2026-05-07 01:59 36.47962 -78.95774 10917 ft 318 kts 173°
2026-05-07 01:59 36.45863 -78.95163 10673 ft 302 kts 173°
2026-05-07 02:00 36.43864 -78.94580 10445 ft 288 kts 174°
2026-05-07 02:00 36.41951 -78.94026 10239 ft 277 kts 174°
2026-05-07 02:00 36.40132 -78.93387 10036 ft 279 kts 161°
2026-05-07 02:00 36.38539 -78.91933 9832 ft 290 kts 141°
2026-05-07 02:01 36.37123 -78.90122 9590 ft 294 kts 139°
2026-05-07 02:01 36.35715 -78.88274 9334 ft 294 kts 139°
2026-05-07 02:01 36.34312 -78.86448 9082 ft 292 kts 140°
2026-05-07 02:01 36.32909 -78.84646 8837 ft 288 kts 140°
2026-05-07 02:02 36.31540 -78.82896 8587 ft 277 kts 140°
2026-05-07 02:02 36.30221 -78.81216 8356 ft 269 kts 140°
2026-05-07 02:02 36.28912 -78.79571 8133 ft 268 kts 141°
2026-05-07 02:02 36.27587 -78.77916 7765 ft 274 kts 140°
2026-05-07 02:03 36.26241 -78.76217 7307 ft 277 kts 140°
2026-05-07 02:03 36.24913 -78.74530 6832 ft 277 kts 139°
2026-05-07 02:03 36.23567 -78.72820 6338 ft 277 kts 139°
2026-05-07 02:03 36.22216 -78.71106 5745 ft 281 kts 140°
2026-05-07 02:04 36.20845 -78.69369 5256 ft 279 kts 140°
2026-05-07 02:04 36.19523 -78.67690 5095 ft 265 kts 140°
2026-05-07 02:04 36.18254 -78.66141 5010 ft 247 kts 144°
2026-05-07 02:04 36.16996 -78.64773 5006 ft 237 kts 147°
2026-05-07 02:05 36.15729 -78.63473 4996 ft 236 kts 148°
2026-05-07 02:05 36.14530 -78.62038 5016 ft 244 kts 140°
2026-05-07 02:05 36.13353 -78.60519 5012 ft 245 kts 141°
2026-05-07 02:05 36.12166 -78.59009 5007 ft 244 kts 141°
2026-05-07 02:06 36.10989 -78.57512 5002 ft 243 kts 141°
2026-05-07 02:06 36.09829 -78.56037 5004 ft 241 kts 141°
2026-05-07 02:06 36.08654 -78.54548 5024 ft 244 kts 141°
2026-05-07 02:06 36.07449 -78.53034 5027 ft 249 kts 141°
2026-05-07 02:07 36.06240 -78.51516 5010 ft 244 kts 141°
2026-05-07 02:07 36.03912 -78.48567 4643 ft 235 kts 142°
2026-05-07 02:07 36.02821 -78.47119 4382 ft 228 kts 134°
2026-05-07 02:08 36.02245 -78.45301 4120 ft 231 kts 96°
2026-05-07 02:08 36.02572 -78.43425 4030 ft 223 kts 58°
2026-05-07 02:08 36.03557 -78.41986 4045 ft 221 kts 41°
2026-05-07 02:08 36.04667 -78.40624 4043 ft 227 kts 40°
2026-05-07 02:09 36.05776 -78.39277 4033 ft 225 kts 41°
2026-05-07 02:09 36.06887 -78.37936 4016 ft 220 kts 40°
2026-05-07 02:09 36.07999 -78.36675 4000 ft 212 kts 26°
2026-05-07 02:09 36.09355 -78.36206 4040 ft 200 kts 346°
2026-05-07 02:10 36.10586 -78.36783 4041 ft 186 kts 314°
2026-05-07 02:10 36.11589 -78.37793 4025 ft 185 kts 311°
2026-05-07 02:10 36.12557 -78.38820 4019 ft 182 kts 310°
2026-05-07 02:10 36.13510 -78.39837 4012 ft 179 kts 310°
2026-05-07 02:11 36.14450 -78.40837 4018 ft 178 kts 310°
2026-05-07 02:11 36.15389 -78.41832 4008 ft 177 kts 310°
2026-05-07 02:11 36.16329 -78.42815 4018 ft 177 kts 310°
2026-05-07 02:11 36.17276 -78.43795 4019 ft 178 kts 310°
2026-05-07 02:12 36.18225 -78.44774 4021 ft 178 kts 310°
2026-05-07 02:12 36.19173 -78.45747 4021 ft 180 kts 310°
2026-05-07 02:12 36.20142 -78.46742 4010 ft 182 kts 310°
2026-05-07 02:12 36.21114 -78.47742 4019 ft 182 kts 311°
2026-05-07 02:13 36.22084 -78.48756 4027 ft 183 kts 310°
2026-05-07 02:13 36.23058 -78.49783 4027 ft 185 kts 310°
2026-05-07 02:13 36.24035 -78.50813 4013 ft 183 kts 310°
2026-05-07 02:13 36.24999 -78.51826 4003 ft 180 kts 310°
2026-05-07 02:14 36.25953 -78.52826 4012 ft 179 kts 310°
2026-05-07 02:14 36.26907 -78.53826 4018 ft 180 kts 310°
2026-05-07 02:14 36.27866 -78.54828 4009 ft 181 kts 310°
2026-05-07 02:14 36.28831 -78.55818 4010 ft 180 kts 310°
2026-05-07 02:15 36.29796 -78.56800 4008 ft 179 kts 310°
2026-05-07 02:15 36.30843 -78.57665 3996 ft 190 kts 333°
2026-05-07 02:15 36.32204 -78.57670 4029 ft 214 kts 11°
2026-05-07 02:15 36.33494 -78.56655 4042 ft 226 kts 38°
2026-05-07 02:16 36.34633 -78.55316 4017 ft 225 kts 40°
2026-05-07 02:16 36.35720 -78.53934 3996 ft 225 kts 52°
2026-05-07 02:16 36.36237 -78.52154 4010 ft 219 kts 92°
2026-05-07 02:16 36.35878 -78.50366 4037 ft 213 kts 126°
2026-05-07 02:17 36.35101 -78.48780 4025 ft 216 kts 130°
2026-05-07 02:17 36.34297 -78.47219 4010 ft 214 kts 130°
2026-05-07 02:17 36.33501 -78.45673 4003 ft 211 kts 130°
2026-05-07 02:17 36.32718 -78.44147 4008 ft 209 kts 130°
2026-05-07 02:18 36.31945 -78.42636 4009 ft 207 kts 130°
2026-05-07 02:18 36.31173 -78.41131 4021 ft 211 kts 130°
2026-05-07 02:18 36.30377 -78.39588 4019 ft 214 kts 130°
2026-05-07 02:18 36.29577 -78.38034 4008 ft 213 kts 130°
2026-05-07 02:19 36.28784 -78.36491 3999 ft 212 kts 130°
2026-05-07 02:19 36.27998 -78.34959 4002 ft 210 kts 130°
2026-05-07 02:19 36.27214 -78.33429 4007 ft 210 kts 130°
2026-05-07 02:19 36.26432 -78.31901 4002 ft 210 kts 130°
2026-05-07 02:20 36.25631 -78.30401 3999 ft 205 kts 141°
2026-05-07 02:20 36.24486 -78.29669 4008 ft 176 kts 189°
2026-05-07 02:20 36.23403 -78.30163 4039 ft 167 kts 219°
2026-05-07 02:20 36.22438 -78.30993 4021 ft 169 kts 220°
2026-05-07 02:21 36.21476 -78.31828 4016 ft 168 kts 220°
2026-05-07 02:21 36.20536 -78.32643 4019 ft 167 kts 220°
2026-05-07 02:21 36.19590 -78.33463 4005 ft 165 kts 220°
2026-05-07 02:21 36.18662 -78.34271 4008 ft 162 kts 220°
2026-05-07 02:22 36.17745 -78.35069 4015 ft 160 kts 220°
2026-05-07 02:22 36.16816 -78.35874 4028 ft 166 kts 220°
2026-05-07 02:22 36.15861 -78.36700 4027 ft 168 kts 220°
2026-05-07 02:22 36.15128 -78.37753 4022 ft 160 kts 250°
2026-05-07 02:23 36.14779 -78.39056 4017 ft 159 kts 251°
2026-05-07 02:23 36.14421 -78.40342 4016 ft 158 kts 250°
2026-05-07 02:23 36.14064 -78.41613 4020 ft 156 kts 250°
2026-05-07 02:23 36.13703 -78.42889 4020 ft 160 kts 250°
2026-05-07 02:24 36.13337 -78.44200 4027 ft 163 kts 250°
2026-05-07 02:24 36.12972 -78.45529 4016 ft 163 kts 250°
2026-05-07 02:24 36.12607 -78.46831 4020 ft 162 kts 250°
2026-05-07 02:24 36.12228 -78.48129 4008 ft 160 kts 244°
2026-05-07 02:25 36.11565 -78.49230 4013 ft 161 kts 226°
2026-05-07 02:25 36.10612 -78.49954 3998 ft 170 kts 195°